Regional Weather Roundup
Issued by NWS

Home | Current Version | Previous Version | Graphics & Text | Print | Product List | Glossary On
Versions: 1 2 3 4 5 6 7 8 9 10 11 12 13 14 15 16 17 18 19 20 21 22 23 24 25 26 27 28 29 30 31 32 33 34 35 36 37 38 39 40 41 42 43 44 45 46 47 48 49 50
019
ASUS45 KBOI 212310
RWRID

IDAHO REGIONAL WEATHER ROUNDUP
NATIONAL WEATHER SERVICE BOISE ID
400 PM MST SAT JAN 21 2017

NOTE: "FAIR" INDICATES FEW OR NO CLOUDS BELOW 12000 FEET
WITH NO SIGNIFICANT WEATHER AND/OR OBSTRUCTIONS TO VISIBILITY

IDZ012-014-220000-
SOUTHWEST IDAHO


CITY           SKY/WX    TMP DP  RH WIND       PRES   REMARKS
BOISE          CLOUDY    40  33  76 SE7       29.67R
CALDWELL       CLOUDY    38  32  79 E9        29.68R WCI  31
MOUNTAIN HOME  MOSUNNY   35  35 100 E7        29.67R WCI  29
$$

IDZ016-017-220000-
SOUTHCENTRAL IDAHO


CITY           SKY/WX    TMP DP  RH WIND       PRES   REMARKS
BURLEY         MOSUNNY   36  27  69 W12       29.66R WCI  28
JEROME         PTSUNNY   34  28  79 W10       29.67R WCI  26
TWIN FALLS     CLOUDY    37  26  64 SW12      29.67R WCI  29
$$

IDZ019>023-220000-
SOUTHEAST IDAHO


CITY           SKY/WX    TMP DP  RH WIND       PRES   REMARKS
IDAHO FALLS    CLOUDY    30  27  88 S12       29.63R WCI  20
POCATELLO      CLOUDY    33  28  81 SW18      29.66R WCI  22
REXBURG        CLOUDY    29  27  92 SW7       29.61R WCI  22
$$

IDZ006-010-011-018-031-032-220000-
CENTRAL IDAHO MOUNTAINS


CITY           SKY/WX    TMP DP  RH WIND       PRES   REMARKS
MCCALL         CLOUDY    29  25  85 S13       29.57R WCI  19
HAILEY         PTSUNNY   32  27  80 SE10      29.63R WCI  24
STANLEY          N/A     27  21  78 N5        29.57R WCI  22
SALMON         CLOUDY    23  19  86 CALM      29.62R
CHALLIS        PTSUNNY   23  19  85 CALM      29.59R
$$

IDZ002-004-006-007-026-220000-
NORTHERN IDAHO


CITY           SKY/WX    TMP DP  RH WIND       PRES   REMARKS
LEWISTON       CLOUDY    43  31  62 E9        29.57R
LOWELL           N/A     36  33  89 N5        29.62R WCI  32
COEUR D`ALENE  CLOUDY    36  32  85 N12       29.56R WCI  28
MULLAN PASS    FOG       26  25  96 CALM      29.49R VSB 1/4
$$




USA.gov is the U.S. government's official web portal to all federal, state and local government web resources and services.